Temp
13 15 16 17 17 17 18 19 19 20 20 22 22 22 24 26 27 27 32 33 32 30 27 28 30 33 34 35 34 35 33 25 26 31 33 35 34 34 34 35 35 34 32 32 31
11 13 15 16 17 17 18 18 19 20 20 22 23 23 24 25 25 31 33 33 32 30 28 32 34 35 34 34 28 28 31 31 31 29 32 33 32 34 34 34 33 34 33 31 31
10 13 15 16 17 17 18 18 19 20 20 21 22 23 24 24 29 36 31 32 32 31 32 35 37 37 36 35 30 27 32 33 34 32 31 35 35 35 34 32 34 33 32 32 31
12 13 15 16 16 17 18 18 19 20 21 21 22 23 24 24 32 32 32 31 31 30 30 36 37 36 36 37 32 33 36 36 34 35 32 34 35 33 34 34 32 34 32 32 32
12 13 14 15 16 17 18 18 19 20 21 22 22 22 23 30 33 32 32 31 28 28 32 36 36 37 35 37 39 38 36 36 36 35 32 29 34 32 33 31 31 33 33 32 32
13 13 13 14 16 17 18 18 19 20 21 22 22 22 23 29 34 32 31 28 31 30 33 36 37 38 35 36 38 39 37 36 37 35 31 24 26 33 34 33 33 33 32 33 33
13 14 14 15 16 17 18 19 19 20 21 22 22 20 27 31 34 33 33 32 32 33 35 37 38 37 38 37 40 38 34 34 35 35 34 32 31 30 36 35 33 33 33 33 33
14 14 15 16 16 17 18 19 20 20 21 22 22 21 28 32 32 34 34 34 34 34 36 37 38 37 37 38 38 38 34 28 30 32 31 29 28 28 31 35 33 33 33 33 33
14 14 15 15 17 17 19 20 20 20 20 21 21 25 30 32 32 33 34 35 35 35 36 36 37 36 37 36 36 38 36 30 27 32 23 28 24 29 30 34 34 32 32 33 33
14 14 15 16 17 17 20 22 21 20 21 21 24 28 31 32 34 33 34 34 36 36 36 36 35 35 36 36 35 37 37 33 27 28 24 23 29 30 31 35 35 34 33 33 33
14 15 15 16 17 18 19 21 25 24 25 29 31 30 34 33 33 34 34 35 35 35 34 35 34 33 35 37 38 38 36 34 32 30 27 24 24 28 28 35 34 34 34 34 34
14 15 15 17 18 19 18 24 26 26 25 30 30 31 33 33 31 33 34 34 33 33 34 34 33 35 37 38 38 38 38 35 33 34 30 24 26 27 28 32 36 35 34 34 34
14 15 16 17 19 19 22 26 25 26 26 29 31 31 32 33 31 33 34 34 33 33 34 33 35 36 36 37 37 38 38 34 33 35 33 29 27 28 33 35 37 37 36 35 35
14 15 16 17 17 23 26 25 25 26 25 29 31 32 33 33 31 33 34 34 33 33 34 34 36 36 36 36 37 37 39 39 37 34 35 38 35 32 35 37 38 38 37 36 35
14 15 16 14 16 24 25 25 25 26 25 32 32 33 33 32 33 33 33 34 33 33 34 34 35 35 35 36 38 37 39 38 38 37 38 37 37 35 37 35 37 38 38 37 36
15 15 16 17 16 21 23 24 25 25 25 31 31 30 31 31 31 34 33 34 34 33 34 34 37 36 37 38 38 39 38 38 37 37 35 37 37 34 38 36 38 38 38 38 36
15 16 15 16 23 23 23 25 24 25 31 31 31 31 31 31 31 32 32 31 31 30 31 33 34 36 37 36 38 37 37 34 33 34 35 38 37 37 37 38 40 38 39 38 37
15 16 17 18 21 23 23 24 23 28 29 32 31 31 30 31 32 32 32 31 32 32 32 31 32 35 37 36 36 37 37 35 32 33 35 38 36 38 38 39 40 40 39 39 39
16 19 19 21 22 22 24 23 25 28 29 29 30 29 29 31 32 32 31 31 32 32 31 32 32 36 36 37 37 36 36 37 36 36 36 37 39 40 39 39 40 40 38 36 38
11 19 24 24 23 24 24 22 26 29 28 28 27 28 28 30 31 31 31 33 32 34 33 33 32 35 36 37 37 37 37 35 36 33 32 36 34 34 35 38 40 40 40 39 40
14 23 24 24 24 24 23 26 28 28 27 26 27 27 29 30 31 30 30 32 33 33 34 33 33 34 36 35 35 36 36 36 37 37 34 34 36 37 34 34 39 40 39 39 39
21 24 24 24 24 25 26 26 18 27 27 27 27 27 27 29 29 29 29 27 32 32 31 33 33 32 33 36 37 37 36 36 34 32 36 36 37 37 36 37 40 39 39 38 38
22 26 25 24 23 25 22 25 26 25 26 26 26 27 28 28 27 29 27 29 29 30 30 31 31 30 31 34 37 36 36 36 36 35 33 35 36 34 35 35 37 38 37 36 37
22 24 26 26 26 24 24 24 25 25 25 26 26 27 27 27 28 28 25 27 29 30 23 27 29 30 31 33 36 35 35 36 36 35 34 36 36 37 36 37 37 37 36 36 35
23 24 23 23 23 23 23 23 23 23 22 24 24 25 26 25 27 27 28 27 28 25 28 29 29 31 32 33 34 35 35 35 34 35 35 36 37 38 35 33 34 36 35 34 34
21 21 22 24 23 22 20 21 20 21 20 19 21 21 26 26 24 24 27 28 27 29 28 30 28 30 30 33 33 32 35 35 35 36 36 36 36 32 32 34 34 34 34 33 32
20 20 22 19 22 20 19 18 18 19 20 20 17 19 21 21 23 26 27 28 28 28 28 29 29 28 28 31 32 31 33 34 35 36 35 35 29 29 29 30 30 30 30 29 29
Height
798 796 794 792 789 786 782 779 776 773 769 767 765 762 757 752 748 748 741 735 736 738 742 745 743 734 731 727 730 726 748 790 777 755 747 732 740 738 737 739 740 742 755 763 773
798 795 792 790 788 785 783 780 776 773 769 765 763 761 757 753 747 740 735 734 735 737 741 737 732 726 731 731 746 753 762 758 747 752 745 739 744 739 744 745 750 748 755 766 773
798 794 791 788 786 784 781 779 776 773 769 765 762 759 757 754 745 725 730 732 734 736 735 730 723 720 725 722 748 758 755 741 737 738 739 732 735 733 742 755 748 755 759 766 772
798 794 791 788 784 781 778 775 772 769 767 764 761 757 756 755 755 727 730 731 733 735 737 728 724 726 729 723 730 743 728 728 733 724 739 738 733 742 742 746 746 750 758 764 770
799 795 791 787 784 780 777 773 769 766 763 762 760 758 755 747 734 729 729 730 734 736 734 726 726 723 738 720 712 719 726 725 721 728 735 741 739 748 745 745 748 753 760 765 768
799 794 790 786 782 779 776 772 768 765 762 760 759 757 757 753 729 729 732 731 733 735 731 724 721 716 729 723 716 708 720 725 721 731 740 756 758 738 741 742 747 754 760 763 766
799 794 789 784 780 776 773 770 766 763 760 759 757 757 750 734 726 726 729 730 731 731 726 720 717 719 717 723 701 712 741 735 732 728 737 746 765 757 732 735 749 756 760 761 764
797 793 788 783 778 774 769 766 763 760 758 757 756 757 744 726 728 725 726 726 727 726 723 718 716 718 722 714 713 721 735 776 750 749 748 751 788 768 746 740 752 756 759 760 763
796 791 786 781 776 770 765 762 759 757 756 756 756 752 737 722 723 724 724 722 723 723 721 720 719 726 723 733 737 720 741 765 773 754 784 779 805 764 747 743 748 755 760 760 762
794 790 784 779 773 768 761 757 755 755 755 756 751 750 727 720 716 719 721 721 718 718 721 722 728 736 729 735 755 734 734 749 776 776 789 797 783 767 749 741 746 748 754 757 760
793 788 782 776 771 767 760 755 751 752 748 733 722 724 708 710 714 713 717 719 717 719 734 725 742 747 733 721 714 716 733 748 758 756 776 800 801 783 762 735 743 746 748 750 755
792 786 781 774 769 765 763 755 749 752 747 726 723 719 712 711 722 715 714 720 724 734 725 734 741 724 716 711 713 716 723 739 746 737 759 786 793 761 744 740 724 734 744 746 749
791 785 778 772 766 762 758 752 753 750 746 722 712 712 712 712 719 713 712 713 722 732 728 735 724 714 719 719 721 715 719 736 751 734 736 760 784 773 735 722 716 719 729 739 743
789 783 777 770 770 760 752 754 753 750 753 717 705 701 703 708 717 708 703 710 718 727 725 721 711 715 719 723 713 727 697 706 722 743 749 712 756 747 729 721 714 714 721 731 737
788 783 777 773 769 757 756 754 753 749 766 690 696 692 696 708 703 702 702 703 717 720 719 720 717 717 719 716 705 716 694 706 710 724 723 728 740 735 719 733 723 710 711 720 727
785 780 775 772 769 762 758 755 753 763 756 705 698 709 710 708 709 695 703 702 703 717 709 709 695 702 704 696 697 694 705 709 719 725 751 726 731 748 717 719 709 705 705 709 718
781 778 774 772 761 760 759 754 763 760 701 706 704 699 707 710 712 705 708 718 725 738 731 715 708 695 693 707 694 703 719 753 770 759 756 713 727 720 712 701 691 697 700 701 708
777 774 770 767 764 761 758 758 768 726 715 691 699 696 708 702 703 706 709 719 710 714 723 731 734 703 687 698 708 707 714 742 781 770 744 710 735 712 692 687 682 690 692 694 703
772 766 764 760 761 761 757 760 745 726 711 712 707 716 714 702 698 699 706 708 702 705 724 722 718 686 689 684 692 707 717 704 731 722 733 717 704 685 684 691 684 687 695 704 699
774 764 752 756 758 757 757 757 731 714 718 720 734 720 720 708 705 698 700 692 698 687 693 703 722 692 684 684 682 694 695 727 720 761 770 733 737 737 716 696 687 687 689 691 688
773 755 750 754 755 754 756 735 721 716 724 733 731 727 714 706 698 702 706 691 684 686 680 696 705 701 684 691 699 699 704 706 706 715 747 752 729 697 714 710 690 687 687 693 695
766 750 751 753 756 741 736 730 743 728 725 727 727 726 720 706 706 708 710 712 682 687 699 686 699 712 697 672 672 682 695 700 728 744 714 720 716 680 693 694 678 682 686 694 698
762 744 748 750 753 743 750 733 727 735 730 730 727 721 716 716 720 702 713 703 702 701 706 699 711 728 716 688 670 687 688 693 701 711 728 732 716 693 695 695 685 687 692 699 703
766 749 741 739 737 745 746 742 738 731 736 732 729 721 719 722 709 711 725 712 707 702 715 714 714 715 717 695 673 690 690 689 699 718 722 716 705 690 690 697 694 695 697 702 707
763 755 761 757 755 756 753 751 749 749 749 741 736 732 729 732 722 717 707 714 711 713 710 709 720 703 692 680 679 679 690 695 702 699 712 704 701 687 697 701 699 699 704 708 712
775 774 765 754 758 762 763 764 769 760 763 766 755 751 725 727 731 730 713 704 714 707 711 700 720 707 702 687 687 695 680 687 691 690 696 696 699 699 686 681 698 705 711 716 719
784 778 772 771 760 773 779 779 778 774 766 763 776 766 748 745 733 720 710 704 705 706 712 710 711 716 719 694 693 712 691 685 689 685 691 708 724 714 720 716 715 721 723 730 731
Wind_Speed
18 17 16 17 17 18 20 21 21 23 23 21 20 20 22 23 25 11 11 3 5 10 13 12 16 17 14 14 9 9 4 3 6 4 11 14 13 9 9 7 9 9 23 24 24
20 19 18 17 17 18 18 20 21 21 23 22 19 19 21 22 21 19 13 9 5 13 15 18 14 13 10 5 5 5 1 2 11 3 7 8 6 16 12 13 10 16 23 28 25
21 20 19 18 18 19 19 20 21 21 21 21 19 19 18 18 12 11 10 9 8 13 15 14 14 8 16 11 7 5 5 7 5 6 21 16 11 11 11 3 15 23 24 22 24
22 21 20 19 19 19 21 22 22 23 20 19 19 18 16 8 6 6 2 7 8 14 15 18 11 12 14 11 18 6 6 7 4 7 10 13 13 9 12 12 2 20 22 21 20
24 23 21 20 20 20 20 21 24 22 20 18 17 16 9 9 17 6 1 7 11 14 17 14 13 11 12 18 9 3 14 5 11 3 5 13 14 7 11 14 5 20 20 20 18
25 25 24 23 21 21 21 21 23 19 19 17 15 13 7 16 9 4 6 11 12 18 19 18 13 6 9 21 12 10 11 2 11 13 11 4 11 20 19 21 18 20 20 19 18
25 26 25 25 23 22 21 22 20 19 17 13 12 7 12 19 5 11 13 12 15 19 17 18 15 15 14 17 9 14 9 12 15 16 12 15 2 11 11 20 18 18 17 18 17
26 27 26 25 24 23 22 22 19 18 11 8 7 7 9 14 23 19 13 16 16 20 19 21 10 12 15 17 19 15 10 5 15 17 9 15 7 12 17 17 18 17 15 17 18
26 28 29 28 25 24 24 20 19 12 8 6 6 10 15 6 19 20 19 20 20 20 16 16 9 13 17 17 15 15 12 13 1 15 5 13 4 15 18 9 17 17 13 14 17
27 28 31 29 25 24 23 20 17 11 9 9 16 10 18 15 15 21 21 20 17 18 16 14 12 14 15 15 15 9 2 9 11 2 12 12 4 20 22 15 14 17 20 16 17
28 29 32 30 24 20 23 10 5 6 13 15 6 13 15 24 1 15 24 23 17 19 21 19 15 18 21 20 23 17 14 9 13 16 10 3 15 16 20 17 19 16 16 17 19
29 30 34 29 22 15 13 7 8 8 10 17 23 22 20 6 7 14 16 23 20 22 20 20 22 23 23 23 22 19 13 14 10 17 14 21 22 26 29 26 24 23 18 19 20
29 30 34 25 17 10 11 8 8 11 8 18 22 23 20 13 14 14 21 21 22 24 25 24 25 23 23 23 23 21 19 13 12 15 22 23 22 26 20 21 21 22 21 20 20
29 30 29 23 10 13 7 4 8 8 6 15 20 19 21 20 21 20 20 21 26 26 27 26 25 26 24 23 23 20 17 12 19 19 7 11 8 22 21 17 16 20 22 20 20
28 28 22 14 14 8 9 9 9 8 6 6 11 6 12 22 12 23 27 19 25 26 22 28 28 27 28 25 25 21 19 13 16 10 12 9 9 4 15 13 18 15 21 22 21
27 26 19 6 7 11 12 9 8 6 10 8 10 10 14 18 20 11 22 20 18 25 26 29 22 28 28 25 24 22 19 14 11 15 13 13 12 14 19 23 23 20 18 20 21
27 23 15 12 9 11 10 7 6 9 11 6 12 12 15 16 20 21 18 23 19 19 25 26 31 27 29 28 23 24 18 9 12 12 13 15 13 7 11 16 12 20 20 18 21
26 20 11 12 10 9 9 8 10 11 19 8 4 6 12 18 22 22 19 17 24 26 17 22 24 30 23 32 26 25 22 14 13 13 15 15 16 9 19 9 7 17 11 17 18
26 14 12 14 5 6 7 9 13 15 12 17 5 11 14 16 18 22 25 21 21 24 26 22 30 21 30 27 28 25 20 22 23 20 12 13 18 17 17 13 12 18 18 18 28
17 15 16 5 3 8 7 14 20 11 9 9 11 16 15 17 20 17 16 22 23 23 25 26 21 28 26 29 28 30 15 21 16 21 14 18 5 8 10 14 14 11 9 4 6
7 6 7 4 5 6 9 16 9 9 6 9 14 18 20 19 9 14 21 19 24 18 26 26 24 22 27 27 28 22 22 22 16 17 15 15 11 22 7 14 13 13 14 10 9
14 3 6 4 6 8 11 3 2 11 11 10 13 16 20 16 12 18 6 19 7 1 8 13 9 17 22 19 29 29 23 24 12 20 14 16 15 13 16 18 12 13 11 13 11
5 3 7 4 7 9 4 21 4 7 13 10 13 13 17 17 11 17 8 5 9 5 2 7 14 13 20 22 26 31 23 23 21 19 18 15 16 14 9 12 8 17 17 13 9
5 1 2 6 2 10 14 13 14 2 9 14 14 17 12 12 14 18 6 5 7 8 9 2 14 18 18 18 20 26 29 26 24 17 18 19 20 5 19 14 20 11 12 12 8
4 5 4 7 10 12 11 13 14 11 8 19 8 16 11 14 15 14 16 13 6 2 7 8 15 17 28 27 16 23 23 23 27 24 21 18 19 10 16 9 11 14 11 11 12
6 6 9 6 5 10 8 11 14 14 16 11 18 28 11 16 7 18 10 7 8 10 11 11 12 16 20 22 15 21 24 25 30 21 22 24 18 23 24 20 18 10 10 11 14
14 15 7 6 6 7 10 11 13 13 14 7 15 18 10 18 18 13 13 6 6 6 10 11 11 10 17 18 12 19 17 23 20 19 16 18 14 18 18 17 20 18 17 14 13
Wind_Direction
346 341 338 337 338 338 337 337 337 334 334 331 332 333 328 322 316 297 271 78 188 163 154 172 217 239 247 247 234 342 336 76 303 183 128 138 129 122 152 144 127 101 135 142 151
348 343 339 335 332 332 332 331 331 330 330 327 326 329 328 325 312 278 262 216 233 176 177 187 208 227 259 262 11 35 295 200 148 252 195 133 187 156 173 137 118 133 129 137 151
347 343 340 336 332 330 328 328 327 326 325 325 323 326 324 325 285 256 198 209 212 200 208 222 264 243 276 117 152 168 246 173 148 248 224 163 163 170 132 147 142 133 141 151 156
349 345 344 338 333 330 328 326 326 324 321 320 322 323 319 307 267 68 158 214 212 200 237 251 260 270 306 289 180 163 152 198 148 157 145 166 151 156 181 146 145 141 147 157 163
357 353 346 339 333 328 325 323 323 321 317 316 318 318 323 244 251 263 137 199 184 202 229 248 251 230 284 308 278 154 151 185 167 162 67 360 169 138 152 124 195 145 156 162 168
356 350 346 340 333 326 322 321 320 315 312 309 308 310 254 255 225 190 164 171 196 206 236 248 255 283 260 262 284 123 117 130 174 148 141 128 255 163 160 158 161 153 165 168 171
354 350 345 340 333 324 319 318 315 311 304 299 292 278 263 243 260 180 201 208 211 210 244 245 257 283 291 298 307 117 101 297 260 165 168 187 291 7 127 136 143 162 169 172 169
350 349 346 340 333 324 315 315 310 308 292 284 279 223 260 258 254 248 240 218 222 234 246 262 273 270 279 287 289 256 149 118 300 34 353 85 17 299 299 144 154 166 172 175 168
345 346 343 339 332 325 313 308 304 294 265 258 263 225 260 243 234 231 223 232 220 237 249 258 282 268 269 249 253 250 217 148 112 356 112 333 192 320 287 202 160 165 171 183 171
341 341 340 338 330 325 310 304 291 279 253 248 258 261 249 237 223 226 228 243 235 222 231 233 244 254 246 253 243 255 156 106 121 280 74 290 239 187 250 179 168 165 172 185 176
338 337 337 335 326 322 317 333 217 196 230 232 231 216 299 198 332 230 213 222 235 242 227 224 234 235 240 233 260 281 165 182 174 192 128 232 272 282 274 194 170 174 177 178 178
339 335 335 332 321 308 296 271 48 329 294 254 249 257 254 213 257 225 227 213 213 227 223 229 226 238 243 251 246 252 253 155 178 236 141 168 219 209 227 237 171 171 178 184 176
339 336 335 333 319 285 256 321 322 319 270 268 239 237 231 205 231 248 209 223 216 222 229 228 230 225 244 248 254 255 253 141 178 230 219 173 191 221 220 233 165 173 171 185 182
337 336 336 331 309 323 281 357 306 318 277 255 210 222 219 224 239 238 247 212 225 227 226 238 231 239 220 244 247 250 252 247 192 184 216 214 218 190 197 187 194 174 168 181 184
335 335 331 319 306 297 351 316 321 273 278 101 145 123 206 208 233 201 225 230 229 222 228 231 236 230 241 223 244 251 257 226 253 263 276 180 257 188 189 178 196 206 172 178 182
330 332 323 294 254 271 311 299 272 234 244 163 137 203 220 202 228 245 197 234 227 242 234 241 230 238 238 241 228 251 252 253 283 282 247 248 256 168 185 194 185 183 188 176 175
322 322 297 291 288 323 304 265 226 244 210 223 186 202 210 204 221 228 188 206 218 219 231 233 237 238 237 240 230 230 242 223 236 245 243 231 234 170 100 291 206 170 185 177 172
316 310 276 257 281 292 272 235 248 255 243 265 350 303 214 215 215 216 215 213 218 234 223 227 226 228 231 233 235 223 221 232 222 241 238 224 245 211 164 160 134 158 174 174 187
320 293 243 234 275 269 252 234 234 250 359 357 344 263 263 257 257 201 220 227 221 213 235 224 234 224 231 236 231 238 219 230 244 231 255 252 213 240 126 175 183 159 158 163 223
322 295 235 159 234 260 255 262 283 323 346 320 291 289 274 250 230 233 237 217 240 219 219 243 246 231 221 230 239 232 234 223 234 250 245 257 225 276 315 193 197 172 173 110 119
274 242 104 204 245 252 250 258 281 35 8 305 284 278 284 273 258 233 241 243 224 253 209 223 244 244 225 211 225 222 225 236 245 237 235 248 249 199 100 323 208 200 129 94 50
276 285 102 258 251 233 248 218 345 318 297 267 269 279 290 287 288 278 199 24 41 195 294 222 251 239 250 234 214 231 223 229 228 254 235 256 267 145 168 200 156 139 114 94 65
276 325 119 237 282 328 107 288 299 296 288 279 264 260 269 281 285 255 44 6 336 261 296 289 235 249 251 256 212 215 216 227 229 231 250 249 248 133 150 302 36 135 112 93 66
280 310 190 207 246 346 348 332 312 124 295 290 302 296 278 271 269 268 127 274 274 276 18 332 259 234 242 251 197 201 215 219 228 230 224 247 248 183 148 199 169 134 88 96 74
267 30 359 340 355 342 308 319 310 358 341 316 272 264 268 266 256 246 258 170 226 192 277 236 251 254 242 258 281 202 211 231 233 240 236 233 236 231 155 128 49 88 77 62 63
348 349 338 324 18 333 32 37 342 341 327 322 317 340 280 252 349 343 287 238 191 201 229 237 241 259 267 254 253 286 212 208 227 225 234 243 246 37 23 114 148 111 100 67 54
6 337 282 331 22 359 15 342 336 329 302 333 357 335 337 355 330 325 320 211 9 186 215 249 251 271 250 245 207 227 257 200 225 234 248 233 55 47 41 33 50 53 59 43 27